Starlink 4049

operational
NORAD ID: 52840 Int'l Des: 2022-062 Owner: SPXS Country: US Constellation: starlink
LEOCIRCULAR

About Starlink 4049

Description loading...

Live Position

Loading 3D Globe...

Upcoming Passes

Altitude History

Altitude vs Time

uPlot chart will show altitude changes over time

Two-Line Element Set

1 52840U 22062L 25303.59205630 .00000121 00000-0 25679-4 0 9991
2 52840 53.2182 258.2691 0001578 94.7949 265.3223 15.08848085186148
Epoch: Oct 30, 2025 • Age: 19 hours

Current Status

Altitude 543.1 km
Velocity 7.60 km/s
Sub-Earth Point 42.92°N, 115.32°E
Launch Date Jun 17, 2022
Age 3.3 years
Type internet

Technical Details

Classification Payload
Mass 297.00 kg
Dry Mass 275.00 kg
Total Mass 297.00 kg
Length 0.20 m
Diameter 2.80 m
Span 9.00 m
Shape Box + pan
Manufacturer SPXS
Bus Type Starlink
Phase Status In Orbit
Owner/State SPXS/US

Large Constellations

Loading constellations...